SAS2585 EKCH-LEPA

Flight info

Callsign SAS2585
Flight time 3h 12m
Altitude 40000
Route NEXEN T503 GIMRU DCT MICOS DCT WRB DCT XAROL DCT BOMBI DCT GIGET DCT ABUKA DCT KRH DCT NATOR/N0454F410 DCT LUTIX DCT BENOT DCT NEMOS DCT GEVEA DCT INCUS DCT BALSI DCT RETNO DCT TUPOX DCT MTG DCT DIVKO DCT VATIR N852 VERSO L129 LUNIK
Aircraft A339/H-SADE1E2E3GHIJ3J5M1P2RWXY/LB2D1

Departure

Time 2026-04-25 11:15
Airport Copenhagen Kastrup Airport (EKCH)

Arrival

Time 2026-04-25 14:27
Airport Palma de Mallorca Airport (LEPA)
Time Latitude Longitude Altitude Speed Heading
2026-04-25 10:35 55.62496 12.64882 30 ft 0 kts 89°
2026-04-25 11:06 55.62496 12.64870 30 ft 4 kts 89°
2026-04-25 11:06 55.62495 12.64831 30 ft 2 kts 89°
2026-04-25 11:06 55.62494 12.64794 29 ft 4 kts 129°
2026-04-25 11:06 55.62506 12.64772 28 ft 4 kts 177°
2026-04-25 11:07 55.62531 12.64771 29 ft 4 kts 179°
2026-04-25 11:07 55.62540 12.64771 30 ft 0 kts 179°
2026-04-25 11:10 55.62538 12.64771 30 ft 1 kts 179°
2026-04-25 11:11 55.62521 12.64771 30 ft 4 kts 179°
2026-04-25 11:11 55.62475 12.64773 30 ft 11 kts 179°
2026-04-25 11:11 55.62372 12.64773 30 ft 17 kts 191°
2026-04-25 11:11 55.62303 12.64626 30 ft 15 kts 249°
2026-04-25 11:12 55.62262 12.64452 28 ft 16 kts 244°
2026-04-25 11:12 55.62177 12.64330 28 ft 16 kts 206°
2026-04-25 11:12 55.62081 12.64246 30 ft 16 kts 206°
2026-04-25 11:12 55.61983 12.64163 30 ft 16 kts 205°
2026-04-25 11:13 55.61880 12.64076 30 ft 17 kts 209°
2026-04-25 11:13 55.61791 12.63949 30 ft 16 kts 220°
2026-04-25 11:13 55.61700 12.63807 30 ft 20 kts 221°
2026-04-25 11:13 55.61576 12.63682 30 ft 21 kts 184°
2026-04-25 11:14 55.61427 12.63694 30 ft 22 kts 181°
2026-04-25 11:14 55.61303 12.63573 32 ft 21 kts 221°
2026-04-25 11:14 55.61051 12.63174 33 ft 91 kts 224°
2026-04-25 11:14 55.60649 12.62522 35 ft 143 kts 221°
2026-04-25 11:15 55.59750 12.61225 376 ft 178 kts 224°
2026-04-25 11:15 55.58446 12.59386 1556 ft 186 kts 228°
2026-04-25 11:15 55.57409 12.57826 2136 ft 206 kts 231°
2026-04-25 11:15 55.56698 12.56643 2504 ft 216 kts 231°
2026-04-25 11:16 55.54097 12.53070 3642 ft 250 kts 221°
2026-04-25 11:16 55.52640 12.51375 4382 ft 256 kts 221°
2026-04-25 11:16 55.51143 12.49628 5167 ft 258 kts 221°
2026-04-25 11:17 55.49638 12.47842 5963 ft 262 kts 223°
2026-04-25 11:17 55.48122 12.46014 6770 ft 263 kts 224°
2026-04-25 11:17 55.46627 12.44197 7548 ft 265 kts 224°
2026-04-25 11:17 55.45102 12.42334 8338 ft 267 kts 224°
2026-04-25 11:18 55.43561 12.40452 9150 ft 270 kts 225°
2026-04-25 11:18 55.42398 12.39032 9727 ft 273 kts 225°
2026-04-25 11:18 55.40817 12.37102 10265 ft 284 kts 225°
2026-04-25 11:18 55.39136 12.35030 10461 ft 306 kts 224°
2026-04-25 11:19 55.37333 12.32819 10761 ft 323 kts 223°
2026-04-25 11:19 55.35495 12.30598 11404 ft 327 kts 223°
2026-04-25 11:19 55.33609 12.28330 12072 ft 330 kts 223°
2026-04-25 11:19 55.31707 12.26040 12727 ft 333 kts 223°
2026-04-25 11:20 55.29782 12.23717 13401 ft 337 kts 223°
2026-04-25 11:20 55.27813 12.21339 14019 ft 341 kts 223°
2026-04-25 11:20 55.25854 12.18974 14627 ft 343 kts 224°
2026-04-25 11:20 55.23882 12.16598 15230 ft 346 kts 224°
2026-04-25 11:21 55.21918 12.14232 15825 ft 348 kts 224°
2026-04-25 11:21 55.19913 12.11819 16431 ft 351 kts 224°
2026-04-25 11:21 55.17927 12.09342 16991 ft 351 kts 225°
2026-04-25 11:21 55.15943 12.06771 17467 ft 357 kts 225°
2026-04-25 11:22 55.13947 12.04177 18070 ft 359 kts 225°
2026-04-25 11:22 55.11928 12.01571 18611 ft 362 kts 225°
2026-04-25 11:22 55.09889 11.98956 19131 ft 365 kts 225°
2026-04-25 11:22 55.07834 11.96334 19671 ft 367 kts 225°
2026-04-25 11:23 55.05765 11.93699 20203 ft 369 kts 225°
2026-04-25 11:23 55.03683 11.91051 20728 ft 372 kts 225°
2026-04-25 11:23 55.01583 11.88385 21269 ft 375 kts 225°
2026-04-25 11:23 54.99467 11.85702 21819 ft 378 kts 225°
2026-04-25 11:24 54.97333 11.83001 22356 ft 380 kts 225°
2026-04-25 11:24 54.95185 11.80285 22903 ft 383 kts 225°
2026-04-25 11:24 54.93010 11.77531 23223 ft 390 kts 224°
2026-04-25 11:24 54.90810 11.74754 23733 ft 392 kts 224°
2026-04-25 11:25 54.88596 11.71968 24223 ft 395 kts 224°
2026-04-25 11:25 54.86365 11.69164 24653 ft 397 kts 224°
2026-04-25 11:25 54.84113 11.66337 25100 ft 400 kts 224°
2026-04-25 11:25 54.81842 11.63489 25531 ft 404 kts 224°
2026-04-25 11:26 54.79558 11.60629 25981 ft 406 kts 224°
2026-04-25 11:26 54.77253 11.57746 26395 ft 409 kts 224°
2026-04-25 11:26 54.74936 11.54854 26809 ft 412 kts 224°
2026-04-25 11:26 54.72628 11.51977 27236 ft 415 kts 224°
2026-04-25 11:27 54.70274 11.49043 27505 ft 421 kts 224°
2026-04-25 11:27 54.67887 11.46070 27879 ft 424 kts 224°
2026-04-25 11:27 54.65483 11.43087 28302 ft 426 kts 223°
2026-04-25 11:27 54.63881 11.41103 28555 ft 428 kts 223°
2026-04-25 11:28 54.60625 11.37074 29063 ft 432 kts 223°
2026-04-25 11:28 54.58174 11.34045 29406 ft 436 kts 224°
2026-04-25 11:28 54.55701 11.30992 29778 ft 438 kts 224°
2026-04-25 11:28 54.53207 11.27935 30149 ft 441 kts 223°
2026-04-25 11:29 54.50687 11.24870 30477 ft 444 kts 223°
2026-04-25 11:29 54.48159 11.21802 30769 ft 447 kts 223°
2026-04-25 11:29 54.45604 11.18698 31052 ft 451 kts 223°
2026-04-25 11:29 54.43031 11.15582 31436 ft 453 kts 223°
2026-04-25 11:30 54.40448 11.12459 31760 ft 455 kts 223°
2026-04-25 11:30 54.37880 11.09358 32087 ft 458 kts 223°
2026-04-25 11:30 54.35262 11.06199 32405 ft 460 kts 223°
2026-04-25 11:30 54.32629 11.03034 32672 ft 463 kts 222°
2026-04-25 11:31 54.29848 11.00137 32899 ft 472 kts 216°
2026-04-25 11:31 54.26879 10.97767 33124 ft 479 kts 210°
2026-04-25 11:31 54.23787 10.95575 33279 ft 481 kts 210°
2026-04-25 11:31 54.20682 10.93364 33472 ft 482 kts 210°
2026-04-25 11:32 54.17579 10.91144 33691 ft 482 kts 210°
2026-04-25 11:32 54.14533 10.88956 33938 ft 482 kts 210°
2026-04-25 11:32 54.11438 10.86730 34140 ft 482 kts 210°
2026-04-25 11:32 54.08348 10.84511 34349 ft 481 kts 210°
2026-04-25 11:33 54.05258 10.82294 34549 ft 481 kts 210°
2026-04-25 11:33 54.02161 10.80076 34738 ft 481 kts 210°
2026-04-25 11:33 53.99063 10.77860 34895 ft 482 kts 210°
2026-04-25 11:33 53.96008 10.75679 35082 ft 482 kts 210°
2026-04-25 11:34 53.92909 10.73472 35278 ft 482 kts 210°
2026-04-25 11:34 53.89812 10.71269 35479 ft 481 kts 209°
2026-04-25 11:34 53.86709 10.69067 35673 ft 481 kts 209°
2026-04-25 11:34 53.83647 10.66895 35858 ft 481 kts 209°
2026-04-25 11:35 53.80556 10.64707 36052 ft 481 kts 209°
2026-04-25 11:35 53.77462 10.62520 36196 ft 481 kts 209°
2026-04-25 11:35 53.74360 10.60329 36381 ft 481 kts 209°
2026-04-25 11:35 53.71294 10.58169 36560 ft 481 kts 209°
2026-04-25 11:36 53.68198 10.55991 36760 ft 481 kts 209°
2026-04-25 11:36 53.65104 10.53819 36960 ft 480 kts 209°
2026-04-25 11:36 53.62016 10.51654 37141 ft 480 kts 209°
2026-04-25 11:36 53.58963 10.49516 37325 ft 480 kts 209°
2026-04-25 11:37 53.55855 10.47343 37517 ft 480 kts 209°
2026-04-25 11:37 53.52769 10.45190 37665 ft 480 kts 209°
2026-04-25 11:37 53.49673 10.43033 37882 ft 479 kts 208°
2026-04-25 11:37 53.46632 10.40917 38062 ft 479 kts 208°
2026-04-25 11:38 53.43551 10.38777 38244 ft 479 kts 208°
2026-04-25 11:38 53.40450 10.36626 38419 ft 479 kts 208°
2026-04-25 11:38 53.37361 10.34488 38596 ft 479 kts 208°
2026-04-25 11:38 53.34317 10.32384 38754 ft 479 kts 208°
2026-04-25 11:39 53.31236 10.30257 38905 ft 478 kts 208°
2026-04-25 11:39 53.28151 10.28129 39028 ft 477 kts 208°
2026-04-25 11:39 53.25064 10.26004 39171 ft 477 kts 208°
2026-04-25 11:39 53.22026 10.23918 39293 ft 477 kts 208°
2026-04-25 11:40 53.18953 10.21812 39409 ft 477 kts 208°
2026-04-25 11:40 53.15887 10.19713 39525 ft 477 kts 208°
2026-04-25 11:40 53.12818 10.17616 39644 ft 476 kts 208°
2026-04-25 11:40 53.09743 10.15517 39763 ft 476 kts 208°
2026-04-25 11:41 53.06663 10.13416 39884 ft 476 kts 208°
2026-04-25 11:41 53.03595 10.11329 40005 ft 476 kts 208°
2026-04-25 11:41 52.97492 10.07184 40072 ft 476 kts 208°
2026-04-25 11:42 52.91433 10.03083 40074 ft 476 kts 208°
2026-04-25 11:42 52.85281 9.98932 40067 ft 476 kts 207°
2026-04-25 11:43 52.79156 9.94811 40076 ft 474 kts 207°
2026-04-25 11:43 52.73039 9.90707 40098 ft 474 kts 207°
2026-04-25 11:44 52.66951 9.86635 40103 ft 475 kts 207°
2026-04-25 11:44 52.60824 9.82549 40105 ft 475 kts 207°
2026-04-25 11:45 52.54691 9.78472 40110 ft 474 kts 207°
2026-04-25 11:45 52.48560 9.74410 40109 ft 474 kts 207°
2026-04-25 11:46 52.42469 9.70386 40108 ft 474 kts 207°
2026-04-25 11:46 52.36323 9.66338 40078 ft 474 kts 207°
2026-04-25 11:47 52.30251 9.62350 40104 ft 471 kts 207°
2026-04-25 11:47 52.24154 9.58357 40110 ft 472 kts 207°
2026-04-25 11:48 52.18096 9.54402 40120 ft 472 kts 207°
2026-04-25 11:48 52.11989 9.50426 40108 ft 470 kts 206°
2026-04-25 11:49 52.05906 9.46478 40120 ft 470 kts 206°
2026-04-25 11:49 51.99825 9.42544 40117 ft 470 kts 206°
2026-04-25 11:50 51.93779 9.38643 40111 ft 470 kts 206°
2026-04-25 11:50 51.87697 9.34729 40115 ft 469 kts 206°
2026-04-25 11:51 51.81614 9.30827 40121 ft 469 kts 206°
2026-04-25 11:51 51.75562 9.26957 40119 ft 469 kts 206°
2026-04-25 11:52 51.69469 9.23071 40120 ft 469 kts 206°
2026-04-25 11:52 51.63430 9.19229 40122 ft 468 kts 206°
2026-04-25 11:53 51.57382 9.15394 40123 ft 468 kts 206°
2026-04-25 11:53 51.51272 9.11656 40120 ft 470 kts 202°
2026-04-25 11:54 51.44881 9.09073 40102 ft 474 kts 195°
2026-04-25 11:55 51.35216 9.05859 40109 ft 474 kts 196°
2026-04-25 11:55 51.28735 9.03986 40120 ft 477 kts 191°
2026-04-25 11:56 51.22121 9.02699 40090 ft 477 kts 191°
2026-04-25 11:56 51.15520 9.01398 40119 ft 477 kts 191°
2026-04-25 11:57 51.08971 9.00097 40124 ft 477 kts 191°
2026-04-25 11:57 51.02359 8.98785 40122 ft 477 kts 191°
2026-04-25 11:58 50.95795 8.97486 40114 ft 477 kts 191°
2026-04-25 11:58 50.89202 8.96186 40107 ft 477 kts 191°
2026-04-25 11:59 50.82613 8.94890 40104 ft 476 kts 191°
2026-04-25 11:59 50.76018 8.93598 40109 ft 476 kts 191°
2026-04-25 12:00 50.66169 8.91674 40103 ft 476 kts 191°
2026-04-25 12:01 50.56321 8.89757 40106 ft 476 kts 191°
2026-04-25 12:01 50.49735 8.88481 40105 ft 474 kts 191°
2026-04-25 12:02 50.39919 8.86584 40105 ft 474 kts 191°
2026-04-25 12:02 50.33396 8.85327 40109 ft 474 kts 191°
2026-04-25 12:03 50.27947 8.84280 40113 ft 475 kts 191°
2026-04-25 12:03 50.21368 8.83021 40118 ft 475 kts 191°
2026-04-25 12:04 50.14795 8.81766 40121 ft 475 kts 191°
2026-04-25 12:04 50.08263 8.80521 40114 ft 475 kts 190°
2026-04-25 12:05 50.01693 8.79235 40120 ft 475 kts 191°
2026-04-25 12:05 49.95169 8.77858 40119 ft 475 kts 191°
2026-04-25 12:06 49.88596 8.76481 40106 ft 475 kts 191°
2026-04-25 12:06 49.82061 8.75125 40113 ft 475 kts 191°
2026-04-25 12:07 49.75493 8.73773 40113 ft 475 kts 191°
2026-04-25 12:07 49.68974 8.72434 40119 ft 475 kts 191°
2026-04-25 12:08 49.62415 8.71107 40112 ft 473 kts 190°
2026-04-25 12:08 49.55959 8.69808 40124 ft 471 kts 190°
2026-04-25 12:09 49.49436 8.68499 40128 ft 472 kts 190°
2026-04-25 12:09 49.42915 8.67188 40129 ft 472 kts 190°
2026-04-25 12:10 49.36447 8.65878 40125 ft 470 kts 190°
2026-04-25 12:10 49.29931 8.64560 40122 ft 471 kts 190°
2026-04-25 12:11 49.23378 8.63239 40115 ft 476 kts 190°
2026-04-25 12:11 49.16810 8.61920 40104 ft 479 kts 190°
2026-04-25 12:12 49.10159 8.60589 40108 ft 482 kts 190°
2026-04-25 12:12 49.03539 8.59269 40107 ft 483 kts 190°
2026-04-25 12:13 48.96882 8.57690 40094 ft 481 kts 195°
2026-04-25 12:13 48.90355 8.55541 40106 ft 482 kts 195°
2026-04-25 12:14 48.83788 8.53401 40104 ft 482 kts 195°
2026-04-25 12:14 48.77204 8.51277 40106 ft 483 kts 195°
2026-04-25 12:15 48.70620 8.49160 40099 ft 483 kts 195°
2026-04-25 12:15 48.64152 8.47091 40096 ft 471 kts 195°
2026-04-25 12:16 48.57730 8.45035 40147 ft 472 kts 195°
2026-04-25 12:16 48.54511 8.44006 40256 ft 473 kts 195°
2026-04-25 12:16 48.51285 8.42976 40384 ft 473 kts 195°
2026-04-25 12:17 48.48065 8.41950 40510 ft 472 kts 195°
2026-04-25 12:17 48.44885 8.40939 40632 ft 472 kts 195°
2026-04-25 12:17 48.41664 8.39917 40748 ft 472 kts 195°
2026-04-25 12:17 48.38441 8.38895 40847 ft 473 kts 195°
2026-04-25 12:18 48.31973 8.36847 41040 ft 474 kts 194°
2026-04-25 12:18 48.25560 8.34823 41101 ft 472 kts 194°
2026-04-25 12:19 48.16122 8.30556 41102 ft 472 kts 207°
2026-04-25 12:20 48.10399 8.25870 41100 ft 471 kts 216°
2026-04-25 12:20 48.04904 8.20476 41105 ft 473 kts 216°
2026-04-25 12:21 47.99398 8.15155 41114 ft 474 kts 216°
2026-04-25 12:21 47.93820 8.09805 41103 ft 475 kts 216°
2026-04-25 12:22 47.88286 8.04513 41109 ft 475 kts 216°
2026-04-25 12:22 47.82703 7.99188 41111 ft 476 kts 215°
2026-04-25 12:23 47.77121 7.93877 41106 ft 476 kts 215°
2026-04-25 12:23 47.71564 7.88601 41110 ft 476 kts 215°
2026-04-25 12:24 47.65962 7.83295 41074 ft 477 kts 215°
2026-04-25 12:24 47.60353 7.78001 41068 ft 477 kts 215°
2026-04-25 12:25 47.54779 7.72752 41063 ft 477 kts 215°
2026-04-25 12:25 47.49169 7.67482 41059 ft 476 kts 215°
2026-04-25 12:26 47.43570 7.62236 41063 ft 476 kts 215°
2026-04-25 12:26 47.37963 7.56995 41057 ft 477 kts 215°
2026-04-25 12:27 47.32377 7.51789 41055 ft 476 kts 215°
2026-04-25 12:27 47.26749 7.46554 41063 ft 477 kts 215°
2026-04-25 12:28 47.21162 7.41350 41061 ft 475 kts 217°
2026-04-25 12:28 47.16037 7.35379 41060 ft 470 kts 226°
2026-04-25 12:29 47.11657 7.28262 41060 ft 466 kts 234°
2026-04-25 12:29 47.07676 7.20818 41060 ft 467 kts 234°
2026-04-25 12:30 47.03624 7.13348 41131 ft 466 kts 234°
2026-04-25 12:30 46.99567 7.05921 41104 ft 466 kts 234°
2026-04-25 12:31 46.95525 6.98541 41101 ft 466 kts 234°
2026-04-25 12:31 46.91348 6.91312 41103 ft 465 kts 229°
2026-04-25 12:32 46.86490 6.84975 41100 ft 468 kts 221°
2026-04-25 12:32 46.81355 6.79171 41099 ft 471 kts 214°
2026-04-25 12:33 46.75245 6.75508 41094 ft 477 kts 200°
2026-04-25 12:33 46.68882 6.72639 41105 ft 477 kts 201°
2026-04-25 12:34 46.62628 6.69559 41110 ft 477 kts 202°
2026-04-25 12:34 46.56361 6.66358 41115 ft 477 kts 202°
2026-04-25 12:35 46.50081 6.63144 41111 ft 477 kts 202°
2026-04-25 12:35 46.43848 6.59966 41105 ft 477 kts 202°
2026-04-25 12:36 46.37566 6.56773 41097 ft 477 kts 202°
2026-04-25 12:36 46.31326 6.53610 41109 ft 477 kts 202°
2026-04-25 12:37 46.25050 6.50435 41109 ft 476 kts 202°
2026-04-25 12:37 46.18819 6.47291 41104 ft 476 kts 202°
2026-04-25 12:38 46.12551 6.44138 41108 ft 476 kts 202°
2026-04-25 12:38 46.06279 6.40988 41100 ft 476 kts 202°
2026-04-25 12:39 46.00052 6.37869 41099 ft 476 kts 202°
2026-04-25 12:39 45.93799 6.34742 41093 ft 474 kts 201°
2026-04-25 12:40 45.87581 6.31647 41117 ft 474 kts 201°
2026-04-25 12:40 45.84474 6.30100 41091 ft 460 kts 201°
2026-04-25 12:40 45.81535 6.28645 41086 ft 446 kts 202°
2026-04-25 12:40 45.78606 6.27194 41088 ft 433 kts 201°
2026-04-25 12:41 45.75831 6.25817 41099 ft 420 kts 202°
2026-04-25 12:41 45.70362 6.23104 41096 ft 414 kts 202°
2026-04-25 12:42 45.64948 6.20426 41083 ft 410 kts 202°
2026-04-25 12:42 45.59560 6.17759 41083 ft 412 kts 202°
2026-04-25 12:43 45.54190 6.15118 41083 ft 410 kts 201°
2026-04-25 12:43 45.46084 6.11144 41089 ft 410 kts 201°
2026-04-25 12:44 45.40719 6.08514 41081 ft 406 kts 201°
2026-04-25 12:44 45.35492 6.05964 41094 ft 386 kts 201°
2026-04-25 12:45 45.32940 6.04718 41099 ft 389 kts 201°
2026-04-25 12:45 45.25099 6.00890 41098 ft 408 kts 201°
2026-04-25 12:46 45.19643 5.98239 41097 ft 420 kts 201°
2026-04-25 12:46 45.14028 5.95517 41092 ft 428 kts 201°
2026-04-25 12:47 45.08437 5.92810 41095 ft 426 kts 201°
2026-04-25 12:47 45.02806 5.90096 41082 ft 426 kts 201°
2026-04-25 12:48 44.97158 5.87372 41087 ft 436 kts 201°
2026-04-25 12:48 44.91326 5.84567 41079 ft 448 kts 201°
2026-04-25 12:49 44.85371 5.81711 41078 ft 458 kts 201°
2026-04-25 12:49 44.79299 5.78808 41067 ft 460 kts 201°
2026-04-25 12:50 44.73275 5.75931 41069 ft 459 kts 200°
2026-04-25 12:50 44.67203 5.73037 41073 ft 459 kts 200°
2026-04-25 12:51 44.61170 5.70171 41059 ft 460 kts 201°
2026-04-25 12:51 44.56123 5.67779 41059 ft 459 kts 201°
2026-04-25 12:52 44.50060 5.64905 41063 ft 458 kts 201°
2026-04-25 12:52 44.44035 5.62055 41060 ft 459 kts 200°
2026-04-25 12:53 44.37975 5.59199 41059 ft 458 kts 201°
2026-04-25 12:53 44.31927 5.56352 41061 ft 459 kts 201°
2026-04-25 12:54 44.25869 5.53509 41061 ft 458 kts 200°
2026-04-25 12:54 44.19850 5.50692 41070 ft 458 kts 201°
2026-04-25 12:55 44.14811 5.48334 41069 ft 458 kts 200°
2026-04-25 12:55 44.07768 5.45047 41068 ft 459 kts 200°
2026-04-25 12:56 44.01699 5.42220 41071 ft 459 kts 200°
2026-04-25 12:56 43.95675 5.39391 41068 ft 459 kts 202°
2026-04-25 12:57 43.89722 5.36148 41064 ft 458 kts 204°
2026-04-25 12:57 43.83801 5.32873 41072 ft 458 kts 203°
2026-04-25 12:58 43.77877 5.29663 41074 ft 459 kts 203°
2026-04-25 12:58 43.71915 5.26458 41076 ft 459 kts 203°
2026-04-25 12:59 43.65979 5.23274 41072 ft 459 kts 202°
2026-04-25 12:59 43.60017 5.20083 41074 ft 459 kts 203°
2026-04-25 13:00 43.55058 5.17432 41100 ft 459 kts 202°
2026-04-25 13:00 43.48112 5.13728 41101 ft 459 kts 202°
2026-04-25 13:01 43.42142 5.10552 41102 ft 458 kts 202°
2026-04-25 13:01 43.39210 5.08996 41101 ft 445 kts 202°
2026-04-25 13:01 43.36425 5.07392 41095 ft 430 kts 210°
2026-04-25 13:02 43.33995 5.05129 41100 ft 416 kts 224°
2026-04-25 13:02 43.32066 5.02173 41101 ft 416 kts 237°
2026-04-25 13:02 43.30685 4.98649 41103 ft 421 kts 249°
2026-04-25 13:02 43.29848 4.94840 41085 ft 424 kts 259°
2026-04-25 13:03 43.29550 4.90822 41085 ft 422 kts 270°
2026-04-25 13:03 43.29829 4.86809 41086 ft 421 kts 282°
2026-04-25 13:03 43.30685 4.82954 41086 ft 423 kts 293°
2026-04-25 13:03 43.32095 4.79414 41085 ft 424 kts 304°
2026-04-25 13:04 43.34013 4.76331 41081 ft 425 kts 316°
2026-04-25 13:04 43.36333 4.73875 41083 ft 425 kts 328°
2026-04-25 13:04 43.39003 4.72105 41084 ft 428 kts 340°
2026-04-25 13:04 43.41904 4.71129 41081 ft 431 kts 352°
2026-04-25 13:05 43.44915 4.71013 41081 ft 434 kts
2026-04-25 13:05 43.47883 4.71777 41079 ft 436 kts 16°
2026-04-25 13:05 43.53565 4.74808 41079 ft 437 kts 20°
2026-04-25 13:06 43.59202 4.77849 41076 ft 437 kts 20°
2026-04-25 13:06 43.64872 4.80906 41078 ft 437 kts 20°
2026-04-25 13:07 43.70162 4.85014 41060 ft 441 kts 41°
2026-04-25 13:07 43.72230 4.88175 41057 ft 443 kts 54°
2026-04-25 13:07 43.73733 4.91839 41053 ft 445 kts 67°
2026-04-25 13:08 43.74639 4.95936 41051 ft 446 kts 80°
2026-04-25 13:08 43.74875 5.00225 41072 ft 448 kts 93°
2026-04-25 13:08 43.74425 5.04488 41076 ft 448 kts 106°
2026-04-25 13:08 43.73314 5.08496 41077 ft 447 kts 119°
2026-04-25 13:09 43.71596 5.12071 41066 ft 445 kts 132°
2026-04-25 13:09 43.69375 5.15015 41073 ft 442 kts 145°
2026-04-25 13:09 43.66779 5.17203 41073 ft 439 kts 158°
2026-04-25 13:09 43.63899 5.18570 41075 ft 437 kts 170°
2026-04-25 13:10 43.60889 5.19051 41076 ft 434 kts 182°
2026-04-25 13:10 43.57901 5.18642 41078 ft 431 kts 195°
2026-04-25 13:10 43.52284 5.15862 41077 ft 429 kts 203°
2026-04-25 13:11 43.46737 5.12941 41075 ft 428 kts 203°
2026-04-25 13:11 43.41155 5.09981 41075 ft 429 kts 203°
2026-04-25 13:12 43.35782 5.06603 41079 ft 426 kts 216°
2026-04-25 13:12 43.33515 5.03987 41080 ft 424 kts 229°
2026-04-25 13:12 43.32261 5.01926 41080 ft 423 kts 236°
2026-04-25 13:13 43.30426 4.97161 41084 ft 422 kts 251°
2026-04-25 13:13 43.29719 4.93293 41083 ft 422 kts 263°
2026-04-25 13:13 43.29600 4.89277 41083 ft 422 kts 274°
2026-04-25 13:13 43.30081 4.85307 41084 ft 422 kts 286°
2026-04-25 13:14 43.31146 4.81545 41085 ft 423 kts 297°
2026-04-25 13:14 43.32756 4.78150 41084 ft 424 kts 309°
2026-04-25 13:14 43.34842 4.75282 41080 ft 425 kts 321°
2026-04-25 13:14 43.37292 4.73079 41081 ft 426 kts 332°
2026-04-25 13:15 43.40064 4.71592 41080 ft 429 kts 344°
2026-04-25 13:15 43.43020 4.70926 41079 ft 432 kts 356°
2026-04-25 13:15 43.46008 4.71129 41078 ft 435 kts
2026-04-25 13:15 43.48938 4.72208 41079 ft 437 kts 20°
2026-04-25 13:16 43.54613 4.75308 41078 ft 437 kts 20°
2026-04-25 13:16 43.60249 4.78347 41076 ft 437 kts 20°
2026-04-25 13:17 43.65926 4.81405 41073 ft 437 kts 20°
2026-04-25 13:17 43.68642 4.83324 41076 ft 439 kts 33°
2026-04-25 13:17 43.70990 4.86025 41058 ft 442 kts 46°
2026-04-25 13:18 43.72868 4.89405 41063 ft 444 kts 59°
2026-04-25 13:18 43.74159 4.93232 41053 ft 446 kts 72°
2026-04-25 13:18 43.74830 4.97439 41053 ft 447 kts 85°
2026-04-25 13:18 43.74819 5.01749 41071 ft 449 kts 98°
2026-04-25 13:19 43.74125 5.05948 41075 ft 448 kts 111°
2026-04-25 13:19 43.72807 5.09777 41075 ft 445 kts 124°
2026-04-25 13:19 43.70904 5.13148 41071 ft 444 kts 136°
2026-04-25 13:19 43.70149 5.14142 41073 ft 443 kts 141°
2026-04-25 13:20 43.65820 5.17765 41075 ft 435 kts 162°
2026-04-25 13:20 43.62894 5.18828 41077 ft 434 kts 174°
2026-04-25 13:20 43.59928 5.19011 41077 ft 431 kts 186°
2026-04-25 13:20 43.56975 5.18323 41076 ft 428 kts 199°
2026-04-25 13:21 43.51423 5.15400 41074 ft 427 kts 203°
2026-04-25 13:21 43.45898 5.12495 41074 ft 427 kts 203°
2026-04-25 13:22 43.40346 5.09546 41075 ft 427 kts 203°
2026-04-25 13:23 43.32969 5.03099 41080 ft 422 kts 232°
2026-04-25 13:23 43.31338 4.99763 41082 ft 421 kts 244°
2026-04-25 13:23 43.30249 4.96026 41082 ft 421 kts 256°
2026-04-25 13:23 43.29754 4.92132 41082 ft 420 kts 267°
2026-04-25 13:24 43.29853 4.88135 41083 ft 420 kts 278°
2026-04-25 13:24 43.30552 4.84243 41082 ft 421 kts 290°
2026-04-25 13:24 43.31829 4.80619 41082 ft 422 kts 302°
2026-04-25 13:24 43.33631 4.77430 41079 ft 423 kts 314°
2026-04-25 13:25 43.35882 4.74824 41078 ft 424 kts 326°
2026-04-25 13:25 43.38452 4.72933 41078 ft 426 kts 337°
2026-04-25 13:25 43.41325 4.71795 41079 ft 429 kts 349°
2026-04-25 13:25 43.44306 4.71523 41077 ft 432 kts
2026-04-25 13:26 43.47248 4.72124 41076 ft 434 kts 14°
2026-04-25 13:26 43.52930 4.75076 41075 ft 436 kts 20°
2026-04-25 13:27 43.58589 4.78132 41073 ft 435 kts 20°
2026-04-25 13:27 43.64213 4.81161 41073 ft 436 kts 20°
2026-04-25 13:28 43.69558 4.85062 41071 ft 439 kts 39°
2026-04-25 13:28 43.73273 4.91751 41060 ft 443 kts 65°
2026-04-25 13:28 43.74235 4.95743 41053 ft 444 kts 78°
2026-04-25 13:29 43.74545 5.00013 41072 ft 447 kts 92°
2026-04-25 13:29 43.74159 5.04290 41072 ft 446 kts 105°
2026-04-25 13:29 43.73103 5.08314 41075 ft 445 kts 118°
2026-04-25 13:30 43.69245 5.14885 41074 ft 440 kts 144°
2026-04-25 13:30 43.66689 5.17090 41074 ft 438 kts 157°
2026-04-25 13:30 43.63823 5.18490 41075 ft 435 kts 170°
2026-04-25 13:31 43.57834 5.18599 41077 ft 429 kts 195°
2026-04-25 13:31 43.52261 5.15848 41076 ft 427 kts 203°
2026-04-25 13:32 43.46742 5.12940 41075 ft 427 kts 203°
2026-04-25 13:32 43.41184 5.09992 41075 ft 427 kts 203°
2026-04-25 13:33 43.35822 5.06625 41077 ft 424 kts 217°
2026-04-25 13:33 43.33574 5.04025 41079 ft 422 kts 229°
2026-04-25 13:33 43.31786 5.00840 41080 ft 420 kts 240°
2026-04-25 13:34 43.29841 4.93327 41082 ft 420 kts 264°
2026-04-25 13:34 43.29757 4.89315 41083 ft 420 kts 275°
2026-04-25 13:34 43.30280 4.85371 41080 ft 420 kts 287°
2026-04-25 13:34 43.31386 4.81658 41080 ft 421 kts 298°
2026-04-25 13:35 43.33007 4.78371 41081 ft 423 kts 310°
2026-04-25 13:35 43.35123 4.75568 41077 ft 423 kts 322°
2026-04-25 13:35 43.37624 4.73428 41077 ft 424 kts 334°
2026-04-25 13:35 43.40404 4.72049 41079 ft 428 kts 346°
2026-04-25 13:36 43.43359 4.71501 41077 ft 431 kts 358°
2026-04-25 13:36 43.46365 4.71837 41076 ft 434 kts 10°
2026-04-25 13:36 43.49255 4.73056 41075 ft 436 kts 23°
2026-04-25 13:36 43.51880 4.75103 41075 ft 439 kts 36°
2026-04-25 13:37 43.54154 4.77927 41077 ft 441 kts 48°
2026-04-25 13:37 43.55937 4.81388 41074 ft 443 kts 61°
2026-04-25 13:37 43.57116 4.85254 41075 ft 444 kts 74°
2026-04-25 13:37 43.57664 4.89446 41074 ft 444 kts 87°
2026-04-25 13:38 43.57530 4.93703 41075 ft 445 kts 100°
2026-04-25 13:38 43.56719 4.97824 41077 ft 444 kts 113°
2026-04-25 13:38 43.55279 5.01577 41076 ft 444 kts 126°
2026-04-25 13:38 43.53302 5.04773 41075 ft 442 kts 139°
2026-04-25 13:39 43.50847 5.07319 41074 ft 440 kts 152°
2026-04-25 13:39 43.45149 5.09905 41076 ft 433 kts 177°
2026-04-25 13:39 43.42141 5.09882 41076 ft 430 kts 189°
2026-04-25 13:40 43.40178 5.09409 41074 ft 432 kts 196°
2026-04-25 13:40 43.37332 5.07987 41077 ft 435 kts 210°
2026-04-25 13:40 43.34791 5.05783 41081 ft 439 kts 217°
2026-04-25 13:41 43.29728 5.00847 41080 ft 450 kts 217°
2026-04-25 13:41 43.24593 4.95861 41083 ft 457 kts 217°
2026-04-25 13:42 43.19370 4.90827 41085 ft 457 kts 217°
2026-04-25 13:42 43.14184 4.85849 41094 ft 457 kts 216°
2026-04-25 13:43 43.08967 4.80845 41092 ft 457 kts 216°
2026-04-25 13:43 43.03666 4.76110 41098 ft 446 kts 210°
2026-04-25 13:43 43.00983 4.74100 41098 ft 434 kts 210°
2026-04-25 13:44 42.98378 4.72145 41099 ft 420 kts 210°
2026-04-25 13:44 42.93320 4.68328 41103 ft 421 kts 210°
2026-04-25 13:45 42.88138 4.64409 41103 ft 425 kts 210°
2026-04-25 13:45 42.83006 4.60539 41105 ft 424 kts 210°
2026-04-25 13:46 42.77828 4.56642 41104 ft 424 kts 210°
2026-04-25 13:46 42.72675 4.52770 41102 ft 422 kts 210°
2026-04-25 13:47 42.67542 4.48920 41110 ft 423 kts 210°
2026-04-25 13:47 42.62373 4.45050 41127 ft 424 kts 210°
2026-04-25 13:48 42.57186 4.41174 41143 ft 424 kts 210°
2026-04-25 13:48 42.52036 4.37333 41135 ft 425 kts 210°
2026-04-25 13:49 42.46853 4.33474 41136 ft 425 kts 210°
2026-04-25 13:49 42.41655 4.29612 41136 ft 425 kts 210°
2026-04-25 13:50 42.36458 4.25757 41142 ft 425 kts 210°
2026-04-25 13:50 42.31291 4.21932 41137 ft 425 kts 210°
2026-04-25 13:51 42.26093 4.18090 41141 ft 424 kts 210°
2026-04-25 13:51 42.20937 4.14287 41140 ft 423 kts 210°
2026-04-25 13:52 42.15753 4.10470 41135 ft 423 kts 210°
2026-04-25 13:52 42.10625 4.06705 41127 ft 422 kts 209°
2026-04-25 13:53 42.05466 4.02925 41137 ft 421 kts 210°
2026-04-25 13:53 42.00312 3.99155 41106 ft 420 kts 209°
2026-04-25 13:54 41.95186 3.95452 41100 ft 420 kts 206°
2026-04-25 13:54 41.89697 3.92783 41105 ft 421 kts 194°
2026-04-25 13:55 41.83918 3.91398 41101 ft 421 kts 190°
2026-04-25 13:55 41.78166 3.90088 41106 ft 421 kts 191°
2026-04-25 13:56 41.72367 3.88747 41052 ft 425 kts 191°
2026-04-25 13:56 41.69401 3.88061 40773 ft 439 kts 191°
2026-04-25 13:56 41.66368 3.87360 40287 ft 455 kts 191°
2026-04-25 13:56 41.63222 3.86636 39807 ft 458 kts 191°
2026-04-25 13:57 41.60076 3.85915 39333 ft 455 kts 191°
2026-04-25 13:57 41.58008 3.85441 39025 ft 453 kts 191°
2026-04-25 13:57 41.53885 3.84496 38329 ft 452 kts 191°
2026-04-25 13:57 41.50772 3.83782 37772 ft 454 kts 190°
2026-04-25 13:58 41.47640 3.83064 37226 ft 458 kts 190°
2026-04-25 13:58 41.44482 3.82342 36693 ft 460 kts 190°
2026-04-25 13:58 41.41353 3.81627 36186 ft 461 kts 190°
2026-04-25 13:58 41.38178 3.80902 35679 ft 462 kts 190°
2026-04-25 13:59 41.34996 3.80176 35231 ft 464 kts 190°
2026-04-25 13:59 41.31799 3.79448 34787 ft 465 kts 190°
2026-04-25 13:59 41.28597 3.78720 34358 ft 467 kts 190°
2026-04-25 13:59 41.25373 3.77985 33890 ft 471 kts 190°
2026-04-25 14:00 41.23221 3.77496 33566 ft 471 kts 190°
2026-04-25 14:00 41.18962 3.76532 32927 ft 464 kts 190°
2026-04-25 14:00 41.15808 3.75709 32451 ft 456 kts 194°
2026-04-25 14:00 41.12805 3.74471 31953 ft 448 kts 201°
2026-04-25 14:01 41.09955 3.72976 31482 ft 441 kts 202°
2026-04-25 14:01 41.07113 3.71487 31010 ft 435 kts 202°
2026-04-25 14:01 41.04300 3.70026 30540 ft 429 kts 201°
2026-04-25 14:01 41.01562 3.68612 30081 ft 426 kts 201°
2026-04-25 14:02 40.98805 3.67194 29532 ft 422 kts 201°
2026-04-25 14:02 40.96080 3.65794 29015 ft 417 kts 201°
2026-04-25 14:02 40.93390 3.64412 28501 ft 411 kts 201°
2026-04-25 14:02 40.92524 3.63969 28335 ft 409 kts 201°
2026-04-25 14:03 40.88143 3.61723 27505 ft 400 kts 201°
2026-04-25 14:03 40.85560 3.60400 27021 ft 395 kts 201°
2026-04-25 14:03 40.83007 3.59093 26541 ft 390 kts 201°
2026-04-25 14:03 40.80491 3.57806 26068 ft 385 kts 201°
2026-04-25 14:04 40.78033 3.56551 25610 ft 380 kts 201°
2026-04-25 14:04 40.75577 3.55297 25154 ft 376 kts 201°
2026-04-25 14:04 40.73073 3.54019 24710 ft 400 kts 201°
2026-04-25 14:04 40.70386 3.52649 24270 ft 424 kts 201°
2026-04-25 14:05 40.67620 3.51241 23832 ft 424 kts 201°
2026-04-25 14:05 40.64911 3.49863 23347 ft 419 kts 201°
2026-04-25 14:05 40.62187 3.48479 22831 ft 414 kts 201°
2026-04-25 14:05 40.59508 3.47118 22326 ft 411 kts 201°
2026-04-25 14:06 40.56876 3.45782 21848 ft 409 kts 201°
2026-04-25 14:06 40.54217 3.44434 21360 ft 407 kts 201°
2026-04-25 14:06 40.51579 3.43097 20886 ft 403 kts 201°
2026-04-25 14:06 40.48996 3.41790 20459 ft 400 kts 201°
2026-04-25 14:07 40.46403 3.40504 20354 ft 398 kts 198°
2026-04-25 14:07 40.43702 3.39634 20258 ft 400 kts 188°
2026-04-25 14:07 40.40923 3.39368 20173 ft 398 kts 179°
2026-04-25 14:07 40.38156 3.39549 20125 ft 395 kts 176°
2026-04-25 14:08 40.35445 3.39731 19791 ft 393 kts 176°
2026-04-25 14:08 40.32711 3.39895 19435 ft 387 kts 176°
2026-04-25 14:08 40.30075 3.40045 19269 ft 370 kts 176°
2026-04-25 14:08 40.27579 3.40184 19119 ft 352 kts 176°
2026-04-25 14:09 40.25196 3.40317 18942 ft 332 kts 176°
2026-04-25 14:09 40.22961 3.40443 18779 ft 312 kts 176°
2026-04-25 14:09 40.20861 3.40561 18616 ft 292 kts 176°
2026-04-25 14:09 40.20180 3.40599 18568 ft 286 kts 176°
2026-04-25 14:10 40.17623 3.40746 18179 ft 272 kts 176°
2026-04-25 14:10 40.15125 3.40889 17574 ft 269 kts 176°
2026-04-25 14:10 40.13271 3.40994 17376 ft 262 kts 176°
2026-04-25 14:10 40.11411 3.41100 17279 ft 271 kts 176°
2026-04-25 14:11 40.09553 3.41206 17176 ft 267 kts 176°
2026-04-25 14:11 40.07702 3.41311 16852 ft 265 kts 176°
2026-04-25 14:11 40.05856 3.41415 16397 ft 265 kts 176°
2026-04-25 14:11 40.04009 3.41519 15928 ft 264 kts 176°
2026-04-25 14:12 40.02175 3.41622 15468 ft 263 kts 176°
2026-04-25 14:12 40.00373 3.41723 15033 ft 261 kts 176°
2026-04-25 14:12 39.98557 3.41825 14588 ft 260 kts 175°
2026-04-25 14:12 39.96756 3.41927 14184 ft 257 kts 175°
2026-04-25 14:13 39.94964 3.42028 13738 ft 256 kts 175°
2026-04-25 14:13 39.93185 3.42129 13299 ft 254 kts 176°
2026-04-25 14:13 39.91426 3.42228 12862 ft 252 kts 176°
2026-04-25 14:13 39.89699 3.42325 12448 ft 249 kts 176°
2026-04-25 14:14 39.87971 3.42422 12039 ft 248 kts 176°
2026-04-25 14:14 39.86257 3.42517 11638 ft 244 kts 176°
2026-04-25 14:14 39.84559 3.42611 11146 ft 244 kts 176°
2026-04-25 14:14 39.82861 3.42706 10699 ft 243 kts 176°
2026-04-25 14:15 39.81187 3.42801 10286 ft 239 kts 176°
2026-04-25 14:15 39.80643 3.42831 10144 ft 239 kts 176°
2026-04-25 14:15 39.77896 3.42986 9424 ft 234 kts 176°
2026-04-25 14:15 39.76261 3.43074 8948 ft 235 kts 176°
2026-04-25 14:16 39.74636 3.43163 8548 ft 231 kts 176°
2026-04-25 14:16 39.73046 3.43255 8179 ft 227 kts 176°
2026-04-25 14:16 39.71501 3.42982 7705 ft 231 kts 201°
2026-04-25 14:16 39.70227 3.41746 7340 ft 229 kts 231°
2026-04-25 14:17 39.69590 3.39851 6866 ft 232 kts 263°
2026-04-25 14:17 39.69621 3.37779 6521 ft 229 kts 277°
2026-04-25 14:17 39.69826 3.35773 6317 ft 225 kts 279°
2026-04-25 14:17 39.70028 3.33695 6227 ft 234 kts 277°
2026-04-25 14:18 39.70164 3.31598 6114 ft 231 kts 274°
2026-04-25 14:18 39.70253 3.29529 6030 ft 229 kts 273°
2026-04-25 14:18 39.70323 3.27471 6037 ft 228 kts 272°
2026-04-25 14:18 39.70377 3.25408 6028 ft 228 kts 272°
2026-04-25 14:19 39.70428 3.23361 6035 ft 230 kts 272°
2026-04-25 14:19 39.70482 3.21279 6033 ft 230 kts 272°
2026-04-25 14:19 39.70548 3.19231 6017 ft 224 kts 272°
2026-04-25 14:19 39.70612 3.17180 6030 ft 228 kts 272°
2026-04-25 14:20 39.70673 3.15149 6026 ft 230 kts 273°
2026-04-25 14:20 39.70695 3.14450 6026 ft 229 kts 272°
2026-04-25 14:20 39.70799 3.11006 6023 ft 231 kts 272°
2026-04-25 14:20 39.70689 3.08955 5952 ft 228 kts 257°
2026-04-25 14:21 39.70100 3.07026 5622 ft 231 kts 240°
2026-04-25 14:21 39.69249 3.05257 5238 ft 229 kts 234°
2026-04-25 14:21 39.68401 3.03507 4892 ft 227 kts 238°
2026-04-25 14:21 39.67595 3.01775 4554 ft 225 kts 237°
2026-04-25 14:22 39.66781 3.00054 4245 ft 222 kts 238°
2026-04-25 14:22 39.65982 2.98351 3927 ft 216 kts 238°
2026-04-25 14:22 39.65217 2.96725 3634 ft 210 kts 238°
2026-04-25 14:22 39.64483 2.95155 3384 ft 194 kts 238°
2026-04-25 14:23 39.63793 2.93692 3125 ft 183 kts 237°
2026-04-25 14:23 39.63167 2.92357 2889 ft 169 kts 237°
2026-04-25 14:23 39.62547 2.91032 2648 ft 171 kts 238°
2026-04-25 14:23 39.61927 2.89708 2411 ft 171 kts 237°
2026-04-25 14:24 39.61309 2.88408 2186 ft 166 kts 236°
2026-04-25 14:24 39.60697 2.87111 1949 ft 170 kts 235°
2026-04-25 14:24 39.60091 2.85826 1712 ft 162 kts 238°
2026-04-25 14:24 39.59535 2.84639 1507 ft 145 kts 236°
2026-04-25 14:25 39.59016 2.83524 1333 ft 150 kts 236°
2026-04-25 14:25 39.58493 2.82433 1125 ft 136 kts 237°
2026-04-25 14:25 39.58002 2.81384 992 ft 140 kts 236°
2026-04-25 14:25 39.57829 2.81020 895 ft 139 kts 236°
2026-04-25 14:26 39.57029 2.79322 627 ft 131 kts 238°
2026-04-25 14:26 39.56722 2.78663 431 ft 126 kts 239°
2026-04-25 14:26 39.56278 2.77711 335 ft 126 kts 239°
2026-04-25 14:26 39.55686 2.76469 122 ft 117 kts 239°
2026-04-25 14:27 39.55235 2.75518 46 ft 121 kts 239°
2026-04-25 14:27 39.54993 2.74999 44 ft 82 kts 239°
2026-04-25 14:27 39.54806 2.74497 44 ft 27 kts 260°
2026-04-25 14:27 39.54803 2.74360 44 ft 14 kts 270°
2026-04-25 14:28 39.54803 2.74270 44 ft 10 kts 270°
2026-04-25 14:28 39.54813 2.74171 44 ft 12 kts 290°
2026-04-25 14:28 39.54872 2.74091 44 ft 13 kts 325°
2026-04-25 14:28 39.54931 2.74036 44 ft 8 kts 311°
2026-04-25 14:29 39.54935 2.73964 44 ft 8 kts 272°
2026-04-25 14:29 39.54971 2.73907 44 ft 9 kts 322°
2026-04-25 14:29 39.55018 2.73867 44 ft 0 kts 328°
2026-04-25 14:29 39.55024 2.73862 44 ft 3 kts 328°
2026-04-25 14:30 39.55037 2.73839 44 ft 3 kts 292°
2026-04-25 14:30 39.55025 2.73780 44 ft 0 kts 246°
2026-04-25 14:30 39.55019 2.73766 44 ft 3 kts 243°
2026-04-25 14:31 39.55009 2.73743 44 ft 0 kts 241°
2026-04-25 14:31 39.55006 2.73736 44 ft 1 kts 240°
2026-04-25 14:31 39.55006 2.73734 44 ft 0 kts 240°